TAM3828 SBGR-SBFN

Flight info

Callsign TAM3828
Flight time N/A
Altitude 35000
Route VUMEV UZ14 AMBET UN857 FNR
Aircraft A20N/M-SDE2FGHIM1RWXYZ/LB1

Departure

Time N/A
Airport São Paulo/Guarulhos–Governor André Franco Montoro International Airport (SBGR)

Arrival

Time 2026-05-03 23:22
Airport Fernando de Noronha Airport (SBFN)
Time Latitude Longitude Altitude Speed Heading
2026-05-03 23:05 -5.02992 -33.03373 34982 ft 468 kts 24°
2026-05-03 23:05 -5.00043 -33.02039 34734 ft 461 kts 17°
2026-05-03 23:06 -4.96994 -33.01015 33763 ft 465 kts 16°
2026-05-03 23:06 -4.93908 -33.00013 32217 ft 470 kts 16°
2026-05-03 23:06 -4.90758 -32.99009 30674 ft 481 kts 17°
2026-05-03 23:06 -4.87542 -32.97990 29341 ft 486 kts 18°
2026-05-03 23:07 -4.84324 -32.96967 28148 ft 484 kts 18°
2026-05-03 23:07 -4.81134 -32.95946 27138 ft 478 kts 18°
2026-05-03 23:07 -4.77988 -32.94932 26208 ft 471 kts 18°
2026-05-03 23:07 -4.74888 -32.93931 25308 ft 465 kts 19°
2026-05-03 23:08 -4.71834 -32.92943 24464 ft 458 kts 19°
2026-05-03 23:08 -4.68815 -32.91967 23630 ft 452 kts 19°
2026-05-03 23:08 -4.65843 -32.91004 22685 ft 446 kts 19°
2026-05-03 23:08 -4.62904 -32.90053 21804 ft 440 kts 19°
2026-05-03 23:09 -4.60016 -32.89119 20968 ft 434 kts 19°
2026-05-03 23:09 -4.57163 -32.88199 20148 ft 427 kts 19°
2026-05-03 23:09 -4.54355 -32.87294 19361 ft 422 kts 19°
2026-05-03 23:09 -4.51576 -32.86399 18586 ft 416 kts 19°
2026-05-03 23:10 -4.48835 -32.85517 17761 ft 411 kts 19°
2026-05-03 23:10 -4.46131 -32.84647 16916 ft 406 kts 19°
2026-05-03 23:10 -4.43449 -32.83782 16094 ft 402 kts 19°
2026-05-03 23:10 -4.40767 -32.82916 15283 ft 398 kts 19°
2026-05-03 23:11 -4.38148 -32.82069 14530 ft 394 kts 19°
2026-05-03 23:11 -4.35599 -32.81246 13815 ft 390 kts 20°
2026-05-03 23:11 -4.32990 -32.80405 12993 ft 385 kts 19°
2026-05-03 23:11 -4.30455 -32.79591 12306 ft 380 kts 19°
2026-05-03 23:12 -4.27944 -32.78784 11771 ft 376 kts 20°
2026-05-03 23:12 -4.25462 -32.77983 11223 ft 374 kts 20°
2026-05-03 23:12 -4.22999 -32.77188 10678 ft 371 kts 20°
2026-05-03 23:12 -4.20589 -32.76413 10494 ft 357 kts 20°
2026-05-03 23:13 -4.18269 -32.75670 10373 ft 342 kts 20°
2026-05-03 23:13 -4.16047 -32.74958 10258 ft 329 kts 20°
2026-05-03 23:13 -4.13912 -32.74273 10145 ft 317 kts 20°
2026-05-03 23:13 -4.11846 -32.73607 10032 ft 305 kts 20°
2026-05-03 23:14 -4.09855 -32.72966 9854 ft 297 kts 20°
2026-05-03 23:14 -4.07892 -32.72332 9492 ft 295 kts 20°
2026-05-03 23:14 -4.05944 -32.71703 9117 ft 294 kts 20°
2026-05-03 23:14 -4.04002 -32.71076 8743 ft 292 kts 20°
2026-05-03 23:15 -4.02073 -32.70454 8369 ft 291 kts 20°
2026-05-03 23:15 -4.00128 -32.69828 7711 ft 298 kts 20°
2026-05-03 23:15 -3.98173 -32.69196 7186 ft 290 kts 20°
2026-05-03 23:15 -3.96286 -32.68590 6788 ft 279 kts 20°
2026-05-03 23:16 -3.94472 -32.68009 6418 ft 268 kts 20°
2026-05-03 23:16 -3.92725 -32.67420 6051 ft 255 kts 27°
2026-05-03 23:16 -3.91142 -32.66700 5700 ft 244 kts 27°
2026-05-03 23:16 -3.89599 -32.66003 5363 ft 243 kts 27°
2026-05-03 23:17 -3.88060 -32.65310 4968 ft 245 kts 27°
2026-05-03 23:17 -3.86521 -32.64618 4694 ft 241 kts 27°
2026-05-03 23:17 -3.85099 -32.63775 4373 ft 236 kts 47°
2026-05-03 23:17 -3.84207 -32.62444 4052 ft 226 kts 73°
2026-05-03 23:18 -3.83999 -32.60933 3749 ft 215 kts 95°
2026-05-03 23:18 -3.84117 -32.59444 3447 ft 215 kts 96°
2026-05-03 23:18 -3.84235 -32.57948 3154 ft 214 kts 96°
2026-05-03 23:18 -3.84348 -32.56496 2845 ft 205 kts 96°
2026-05-03 23:19 -3.84455 -32.55104 2568 ft 196 kts 96°
2026-05-03 23:19 -3.84559 -32.53769 2311 ft 190 kts 96°
2026-05-03 23:19 -3.84661 -32.52453 2055 ft 188 kts 96°
2026-05-03 23:19 -3.84762 -32.51153 1817 ft 182 kts 96°
2026-05-03 23:20 -3.84856 -32.49932 1567 ft 170 kts 95°
2026-05-03 23:20 -3.84942 -32.48799 1346 ft 157 kts 97°
2026-05-03 23:20 -3.85019 -32.47766 1145 ft 144 kts 96°
2026-05-03 23:20 -3.85092 -32.46788 963 ft 139 kts 96°
2026-05-03 23:21 -3.85162 -32.45826 771 ft 139 kts 96°
2026-05-03 23:21 -3.85221 -32.44861 601 ft 137 kts 98°
2026-05-03 23:21 -3.85320 -32.43909 455 ft 140 kts 98°
2026-05-03 23:21 -3.85396 -32.42930 180 ft 137 kts 98°
2026-05-03 23:22 -3.85485 -32.41762 176 ft 20 kts 94°
2026-05-03 23:22 -3.85497 -32.41621 177 ft 20 kts 93°
2026-05-03 23:22 -3.85480 -32.41511 176 ft 8 kts 104°
2026-05-03 23:23 -3.85498 -32.41528 176 ft 10 kts 259°
2026-05-03 23:23 -3.85492 -32.41663 177 ft 25 kts 274°
2026-05-03 23:23 -3.85483 -32.41821 175 ft 22 kts 272°
2026-05-03 23:23 -3.85471 -32.41968 176 ft 21 kts 276°
2026-05-03 23:24 -3.85459 -32.42114 174 ft 22 kts 274°
2026-05-03 23:24 -3.85448 -32.42275 169 ft 25 kts 274°
2026-05-03 23:24 -3.85435 -32.42456 168 ft 27 kts 274°
2026-05-03 23:24 -3.85420 -32.42643 168 ft 21 kts 274°
2026-05-03 23:25 -3.85441 -32.42734 166 ft 13 kts 212°
2026-05-03 23:25 -3.85521 -32.42763 169 ft 8 kts 198°
2026-05-03 23:25 -3.85529 -32.42767 169 ft 0 kts 202°
2026-05-03 23:26 -3.85530 -32.42767 169 ft 2 kts 202°
2026-05-03 23:28 -3.85535 -32.42769 169 ft 3 kts 202°
2026-05-03 23:28 -3.85557 -32.42795 170 ft 5 kts 261°
2026-05-03 23:28 -3.85557 -32.42824 170 ft 4 kts 274°
2026-05-03 23:28 -3.85559 -32.42858 170 ft 5 kts 239°
2026-05-03 23:29 -3.85588 -32.42864 170 ft 5 kts 183°
2026-05-03 23:29 -3.85593 -32.42865 170 ft 0 kts 183°